Location: Jackson Park
(37.2862°N, 79.9123°W)
Time: 14:25:37
(UTC+00:00)

Vanguard 2 Rocket - Pass Details

Date: 16 May 2026
Orbit: 553 x 3286 km, 32.9° (Epoch: 6 June)

Event Time Altitude Azimuth Distance (km) Brightness Sun altitude
Rises 23:12:54 0° 282° (WNW) 7,188 13.6 12.1°
Reaches altitude 10° 23:19:03 10° 271° (W) 6,233 13.2 11.0°
Maximum altitude 23:33:05 25° 226° (SW) 4,763 11.0 8.3°
Drops below altitude 10° 23:44:58 10° 179° (S) 5,171 10.6 6.1°
Sets 23:49:32 0° 166° (SSE) 5,776 10.7 5.2°
